| time (UTC) | temp F | wind direction | speed MPH | gust MPH | rain 1hr in | rain 24hr in | rain mn in | humidity % | barometer mb |
| 20260831231542 | 48 | 163 | 2.0 | 4.0 | 0.00 | 0.02 | 0.02 | 91 | 1025.0 |
| 20260831230040 | 49 | 163 | 0.0 | 2.0 | 0.00 | 0.02 | 0.02 | 92 | 1024.8 |
| 20260831224539 | 49 | 163 | 0.0 | 0.0 | 0.00 | 0.02 | 0.02 | 91 | 1024.7 |
| 20260831223041 | 49 | 163 | 0.0 | 1.0 | 0.00 | 0.02 | 0.02 | 92 | 1024.5 |
| 20260831221539 | 49 | 163 | 1.0 | 2.0 | 0.00 | 0.02 | 0.02 | 92 | 1024.3 |
| 20260831220033 | 49 | 163 | 1.0 | 3.0 | 0.00 | 0.02 | 0.02 | 91 | 1024.2 |
| 20260831214540 | 49 | 163 | 3.0 | 5.0 | 0.00 | 0.02 | 0.02 | 92 | 1024.0 |
| 20260831213038 | 50 | 163 | 2.0 | 5.0 | 0.00 | 0.02 | 0.02 | 92 | 1023.8 |
| 20260831211524 | 50 | 163 | 0.0 | 3.0 | 0.00 | 0.02 | 0.02 | 92 | 1023.6 |
| 20260831210023 | 50 | 163 | 1.0 | 3.0 | 0.00 | 0.02 | 0.02 | 92 | 1023.5 |
| 20260831204519 | 50 | 163 | 0.0 | 0.0 | 0.00 | 0.02 | 0.02 | 92 | 1023.2 |
| 20260831203023 | 49 | 163 | 0.0 | 0.0 | 0.00 | 0.02 | 0.02 | 92 | 1023.0 |
| 20260831201518 | 49 | 163 | 0.0 | 0.0 | 0.00 | 0.02 | 0.02 | 91 | 1022.8 |
| 20260831200015 | 49 | 163 | 0.0 | 0.0 | 0.00 | 0.02 | 0.02 | 91 | 1022.6 |
| 20260831194513 | 49 | 163 | 0.0 | 0.0 | 0.00 | 0.02 | 0.02 | 91 | 1022.4 |
| 20260831193013 | 49 | 163 | 0.0 | 1.0 | 0.00 | 0.02 | 0.02 | 91 | 1022.4 |
| 20260831191510 | 50 | 163 | 1.0 | 4.0 | 0.00 | 0.02 | 0.02 | 90 | 1022.5 |
| 20260831190009 | 50 | 144 | 0.0 | 4.0 | 0.00 | 0.02 | 0.02 | 90 | 1022.7 |
| 20260831184506 | 51 | 190 | 2.0 | 4.0 | 0.00 | 0.03 | 0.02 | 91 | 1022.8 |
| 20260831183004 | 51 | 188 | 1.0 | 6.0 | 0.01 | 0.03 | 0.02 | 90 | 1022.9 |
| 20260831181502 | 51 | 185 | 3.0 | 8.0 | 0.01 | 0.03 | 0.02 | 91 | 1022.9 |
| 20260831180059 | 52 | 182 | 2.0 | 8.0 | 0.01 | 0.03 | 0.02 | 91 | 1023.0 |
| 20260831174600 | 52 | 200 | 3.0 | 9.0 | 0.01 | 0.03 | 0.02 | 91 | 1022.9 |
| 20260831173055 | 52 | 185 | 2.0 | 8.0 | 0.01 | 0.02 | 0.01 | 91 | 1022.9 |
| 20260831171553 | 53 | 157 | 3.0 | 6.0 | 0.01 | 0.02 | 0.01 | 91 | 1022.9 |
| 20260831170052 | 53 | 136 | 4.0 | 10.0 | 0.01 | 0.02 | 0.01 | 91 | 1022.8 |
| 20260831164549 | 53 | 126 | 0.0 | 11.0 | 0.01 | 0.02 | 0.01 | 91 | 1022.6 |
| 20260831163048 | 53 | 151 | 1.0 | 8.0 | 0.01 | 0.02 | 0.00 | 91 | 1022.2 |
| 20260831161543 | 54 | 196 | 6.0 | 14.0 | 0.01 | 0.02 | 0.00 | 93 | 1022.0 |
| 20260831160100 | 53 | 313 | 0.0 | 0.0 | 0.01 | 0.02 | 0.00 | 92 | 1021.6 |
| 20260831154540 | 52 | 313 | 0.0 | 0.0 | 0.01 | 0.02 | 0.02 | 92 | 1021.6 |
| 20260831153118 | 52 | 313 | 0.0 | 0.0 | 0.00 | 0.01 | 0.01 | 91 | 1021.6 |
| 20260831151540 | 52 | 313 | 0.0 | 0.0 | 0.00 | 0.01 | 0.01 | 90 | 1021.5 |
| 20260831150039 | 52 | 313 | 0.0 | 0.0 | 0.00 | 0.01 | 0.01 | 90 | 1021.4 |
| 20260831144536 | 53 | 312 | 0.0 | 0.0 | 0.00 | 0.01 | 0.01 | 90 | 1021.5 |
| 20260831143036 | 53 | 311 | 0.0 | 0.0 | 0.00 | 0.01 | 0.01 | 91 | 1021.5 |
| 20260831141542 | 52 | 304 | 0.0 | 2.0 | 0.00 | 0.01 | 0.01 | 89 | 1021.5 |
| 20260831140035 | 54 | 304 | 0.0 | 2.0 | 0.00 | 0.01 | 0.01 | 88 | 1021.4 |
| 20260831134535 | 54 | 207 | 0.0 | 1.0 | 0.00 | 0.01 | 0.01 | 89 | 1021.4 |
| 20260831133035 | 55 | 211 | 0.0 | 0.0 | 0.00 | 0.01 | 0.01 | 88 | 1021.4 |
| 20260831131537 | 55 | 209 | 0.0 | 0.0 | 0.00 | 0.01 | 0.01 | 88 | 1021.3 |
| 20260831130042 | 56 | 293 | 0.0 | 1.0 | 0.00 | 0.01 | 0.01 | 87 | 1021.3 |
| 20260831124533 | 57 | 304 | 2.0 | 3.0 | 0.00 | 0.01 | 0.01 | 87 | 1021.2 |
| 20260831123043 | 57 | 305 | 0.0 | 3.0 | 0.00 | 0.01 | 0.01 | 87 | 1021.2 |
| 20260831121538 | 57 | 306 | 3.0 | 6.0 | 0.00 | 0.01 | 0.01 | 88 | 1021.3 |
| 20260831120105 | 58 | 300 | 2.0 | 5.0 | 0.00 | 0.01 | 0.01 | 87 | 1021.5 |
| 20260831114533 | 58 | 256 | 8.0 | 15.0 | 0.00 | 0.01 | 0.01 | 83 | 1021.4 |
| 20260831113027 | 58 | 287 | 0.0 | 0.0 | 0.00 | 0.01 | 0.01 | 78 | 1020.8 |
| 20260831111525 | 58 | 287 | 0.0 | 2.0 | 0.00 | 0.01 | 0.01 | 76 | 1020.6 |
| 20260831110023 | 58 | 288 | 0.0 | 1.0 | 0.00 | 0.01 | 0.01 | 74 | 1020.3 |
| 20260831104534 | 59 | 290 | 0.0 | 2.0 | 0.00 | 0.01 | 0.01 | 73 | 1019.9 |
| 20260831103018 | 59 | 291 | 2.0 | 4.0 | 0.00 | 0.01 | 0.01 | 71 | 1019.7 |
| 20260831101522 | 61 | 292 | 0.0 | 4.0 | 0.00 | 0.01 | 0.01 | 69 | 1019.6 |
| 20260831100025 | 62 | 292 | 0.0 | 3.0 | 0.00 | 0.01 | 0.01 | 66 | 1019.4 |
| 20260831094515 | 64 | 256 | 1.0 | 6.0 | 0.00 | 0.01 | 0.01 | 63 | 1019.1 |
| 20260831093015 | 65 | 284 | 3.0 | 9.0 | 0.00 | 0.01 | 0.01 | 62 | 1019.0 |
| 20260831091514 | 65 | 298 | 2.0 | 8.0 | 0.00 | 0.01 | 0.01 | 63 | 1018.9 |
| 20260831090014 | 65 | 263 | 4.0 | 9.0 | 0.00 | 0.01 | 0.01 | 64 | 1018.7 |
| 20260831084513 | 66 | 250 | 2.0 | 7.0 | 0.00 | 0.01 | 0.01 | 68 | 1018.6 |
| 20260831083013 | 66 | 277 | 3.0 | 8.0 | 0.00 | 0.01 | 0.01 | 68 | 1018.4 |
| 20260831081521 | 67 | 283 | 5.0 | 11.0 | 0.00 | 0.01 | 0.01 | 67 | 1018.5 |
| 20260831080012 | 68 | 269 | 5.0 | 10.0 | 0.00 | 0.01 | 0.01 | 65 | 1018.3 |
| 20260831074516 | 70 | 279 | 4.0 | 10.0 | 0.00 | 0.01 | 0.01 | 62 | 1018.1 |
| 20260831073011 | 69 | 322 | 4.0 | 12.0 | 0.00 | 0.01 | 0.01 | 63 | 1018.2 |
| 20260831071510 | 69 | 275 | 4.0 | 9.0 | 0.00 | 0.01 | 0.01 | 62 | 1018.1 |
| 20260831070020 | 69 | 267 | 3.0 | 7.0 | 0.00 | 0.01 | 0.01 | 61 | 1017.9 |
| 20260831064509 | 70 | 285 | 6.0 | 14.0 | 0.00 | 0.01 | 0.01 | 60 | 1017.8 |
| 20260831063009 | 70 | 329 | 7.0 | 14.0 | 0.00 | 0.01 | 0.01 | 60 | 1017.6 |
| 20260831061507 | 70 | 296 | 8.0 | 16.0 | 0.00 | 0.01 | 0.01 | 57 | 1017.7 |
| 20260831060006 | 70 | 269 | 5.0 | 14.0 | 0.00 | 0.01 | 0.01 | 58 | 1017.7 |
| 20260831054506 | 70 | 298 | 8.0 | 15.0 | 0.00 | 0.01 | 0.01 | 58 | 1017.7 |
| 20260831053005 | 71 | 304 | 5.0 | 11.0 | 0.00 | 0.01 | 0.01 | 58 | 1017.8 |
| 20260831051502 | 70 | 269 | 4.0 | 17.0 | 0.00 | 0.01 | 0.01 | 63 | 1017.6 |
| 20260831050100 | 69 | 292 | 4.0 | 16.0 | 0.00 | 0.01 | 0.01 | 61 | 1017.8 |
| 20260831044558 | 70 | 281 | 5.0 | 9.0 | 0.00 | 0.01 | 0.01 | 61 | 1017.8 |
| 20260831043057 | 68 | 276 | 4.0 | 13.0 | 0.00 | 0.01 | 0.01 | 66 | 1018.1 |
| 20260831041555 | 67 | 292 | 9.0 | 14.0 | 0.00 | 0.01 | 0.01 | 64 | 1018.2 |
| 20260831040055 | 69 | 288 | 5.0 | 12.0 | 0.00 | 0.01 | 0.01 | 62 | 1018.2 |
| 20260831034553 | 69 | 297 | 7.0 | 13.0 | 0.00 | 0.01 | 0.01 | 62 | 1018.4 |
| 20260831033051 | 68 | 275 | 5.0 | 12.0 | 0.00 | 0.01 | 0.01 | 65 | 1018.5 |
| 20260831031548 | 67 | 323 | 6.0 | 13.0 | 0.00 | 0.01 | 0.01 | 67 | 1018.7 |
| 20260831030045 | 67 | 300 | 3.0 | 12.0 | 0.00 | 0.01 | 0.01 | 71 | 1018.9 |
| 20260831024554 | 66 | 279 | 2.0 | 7.0 | 0.00 | 0.01 | 0.01 | 74 | 1018.9 |
| 20260831023044 | 66 | 224 | 2.0 | 5.0 | 0.00 | 0.01 | 0.01 | 74 | 1018.9 |
| 20260831021551 | 64 | 302 | 2.0 | 7.0 | 0.00 | 0.01 | 0.01 | 80 | 1019.0 |
| 20260831020035 | 63 | 254 | 3.0 | 7.0 | 0.00 | 0.01 | 0.01 | 84 | 1019.0 |
| 20260831014533 | 63 | 311 | 4.0 | 9.0 | 0.00 | 0.01 | 0.01 | 88 | 1019.1 |
| 20260831013030 | 61 | 267 | 4.0 | 8.0 | 0.00 | 0.01 | 0.01 | 94 | 1019.1 |
| 20260831011526 | 60 | 234 | 2.0 | 6.0 | 0.00 | 0.01 | 0.01 | 95 | 1019.1 |
| 20260831010041 | 59 | 288 | 1.0 | 4.0 | 0.00 | 0.01 | 0.01 | 95 | 1019.2 |
| 20260831004519 | 56 | 40 | 0.0 | 2.0 | 0.00 | 0.01 | 0.01 | 95 | 1019.3 |
| 20260831003015 | 54 | 40 | 0.0 | 0.0 | 0.00 | 0.01 | 0.01 | 95 | 1019.4 |
| 20260831001523 | 52 | 36 | 0.0 | 0.0 | 0.00 | 0.01 | 0.01 | 94 | 1019.5 |
| 20260831000007 | 49 | 37 | 0.0 | 0.0 | 0.00 | 0.01 | 0.01 | 94 | 1019.5 |
| 20260830234504 | 47 | 36 | 0.0 | 0.0 | 0.00 | 0.01 | 0.01 | 94 | 1019.5 |
| 20260830233101 | 46 | 37 | 0.0 | 0.0 | 0.00 | 0.01 | 0.01 | 94 | 1019.5 |